Lubbock, TX

5:11 AM CST on November 12, 2019 (GMT -0600)
Lubbock International

Weather History for KLBB - August, 2019

Change the Weather History Date:

Friday, August 30, 2019

  Actual Average Record
Temperature  
Mean Temperature 82 °F 77 °F  
Max Temperature 96 °F 89 °F 104 °F (2011)
Min Temperature 67 °F 64 °F 44 °F (1915)
Degree Days  
Heating Degree Days 0 0  
Month to date heating degree days 0 0  
Since 1 June heating degree days 0 2  
Since 1 July heating degree days 0 0  
Cooling Degree Days 16 12  
Month to date cooling degree days 595 421  
Year to date cooling degree days 1702 1514  
Since 1 June cooling degree days 1492 1268  
Growing Degree Days 32 (Base 50)    
Moisture  
Dew Point 61 °F    
Average Humidity 54    
Maximum Humidity 81    
Minimum Humidity 28    
Precipitation  
Precipitation 0.00 in 0.07 in 1.13 in (1963)
Month to date precipitation 2.14 1.84  
Year to date precipitation 15.59 13.00  
Snow  
Snow 0.00 in 0.00 in 0.00 in (2002)
Month to date snowfall 0.0 0.0  
Since 1 June snowfall 0.0 0.0  
Since 1 July snowfall 0.0 0.0  
Snow Depth 0.00 in    
Sea Level Pressure  
Sea Level Pressure 29.90 in    
Wind  
Wind Speed 8 mph ()    
Max Wind Speed 28 mph    
Max Gust Speed 36 mph    
Visibility 10.0 miles    
Events      
T = Trace of Precipitation, MM = Missing Value Source: Averaged Metar Reports

Daily Weather History Graph

Daily Weather History Graph

Search for Another Location

Airport or City:

Astronomy

Aug. 30, 2019 Rise Set
Actual Time 7:19 AM CDT 8:15 PM CDT
Civil Twilight 6:54 AM CDT 8:41 PM CDT
Nautical Twilight 6:23 AM CDT 9:11 PM CDT
Astronomical Twilight 5:52 AM CDT 9:42 PM CDT
Moon 7:25 AM CDT (8/30) 8:53 PM CDT (8/30)
Length of Visible Light 13h 46m
Length of Day
12h 55m
New Moon, 0% of the Moon is Illuminated
Aug 30
New Moon
Sep 5
First Quarter
Sep 13
Full
Sep 21
Last Quarter
Sep 28
New

Hourly Weather History & Observations

Time (CDT) Temp. Heat Index Dew Point Humidity Pressure Visibility Wind Dir Wind Speed Gust Speed Precip Events Conditions
12:53 AM 79.0 °F - 62.1 °F 56% 29.87 in 10.0 mi SSE 10.4 mph - N/A   Scattered Clouds
1:53 AM 75.0 °F - 62.1 °F 64% 29.88 in 10.0 mi SE 8.1 mph - N/A   Partly Cloudy
2:53 AM 73.9 °F - 63.0 °F 68% 29.88 in 10.0 mi SSE 8.1 mph - N/A   Partly Cloudy
3:53 AM 75.9 °F - 62.1 °F 62% 29.87 in 10.0 mi South 9.2 mph - N/A   Clear
4:53 AM 73.0 °F - 62.1 °F 68% 29.89 in 10.0 mi Calm Calm - N/A   Clear
5:53 AM 71.1 °F - 62.1 °F 73% 29.90 in 10.0 mi SW 3.5 mph - N/A   Partly Cloudy
6:53 AM 68.0 °F - 62.1 °F 81% 29.92 in 10.0 mi NNW 3.5 mph - N/A   Scattered Clouds
7:53 AM 70.0 °F - 62.1 °F 76% 29.93 in 10.0 mi West 4.6 mph - N/A   Partly Cloudy
8:53 AM 75.0 °F - 61.0 °F 62% 29.93 in 10.0 mi WNW 4.6 mph - N/A   Partly Cloudy
9:53 AM 81.0 °F 81.7 °F 61.0 °F 50% 29.93 in 10.0 mi WSW 3.5 mph - N/A   Partly Cloudy
10:53 AM 86.0 °F 85.4 °F 59.0 °F 40% 29.93 in 10.0 mi SSW 12.7 mph - N/A   Partly Cloudy
11:53 AM 88.0 °F 87.1 °F 59.0 °F 37% 29.93 in 10.0 mi SSW 9.2 mph - N/A   Partly Cloudy
12:53 PM 90.0 °F 88.8 °F 57.9 °F 34% 29.91 in 10.0 mi SW 10.4 mph - N/A   Partly Cloudy
1:53 PM 91.9 °F 90.3 °F 55.9 °F 30% 29.91 in 10.0 mi SSE 5.8 mph - N/A   Partly Cloudy
2:53 PM 95.0 °F 94.0 °F 57.9 °F 29% 29.88 in 10.0 mi SSE 11.5 mph 20.7 mph N/A   Partly Cloudy
3:53 PM 95.0 °F 94.4 °F 59.0 °F 30% 29.86 in 10.0 mi South 12.7 mph 23.0 mph N/A   Partly Cloudy
4:53 PM 91.0 °F 90.0 °F 57.9 °F 33% 29.85 in 10.0 mi SE 16.1 mph - N/A   Scattered Clouds
5:53 PM 91.0 °F 89.2 °F 55.9 °F 30% 29.86 in 10.0 mi SSE 13.8 mph - N/A   Mostly Cloudy
6:53 PM 84.9 °F 86.1 °F 64.0 °F 49% 29.88 in 10.0 mi ESE 19.6 mph - N/A   Scattered Clouds
7:53 PM 82.9 °F 83.2 °F 60.1 °F 46% 29.88 in 10.0 mi SE 12.7 mph - N/A   Scattered Clouds
8:53 PM 78.1 °F - 63.0 °F 60% 29.90 in 10.0 mi ESE 10.4 mph - N/A   Scattered Clouds
9:53 PM 75.9 °F - 66.0 °F 71% 29.93 in 10.0 mi ESE 9.2 mph - N/A   Scattered Clouds
10:53 PM 75.9 °F - 64.9 °F 69% 29.94 in 10.0 mi ESE 13.8 mph - N/A   Scattered Clouds
11:53 PM 73.9 °F - 66.0 °F 76% 29.95 in 10.0 mi ESE 12.7 mph - N/A   Scattered Clouds